Presure
193 186 193 190 190 184 185 185 190 191 184 185 185 182 180 180 179 181 182 186 185 188 197 200 199 195 191 191 192 194 197 185 178 191 195 196 201 203 195 200 190 187 196 199 190
189 186 186 186 190 185 183 178 174 176 180 181 178 177 175 177 178 175 183 187 185 187 188 187 187 186 186 186 186 189 187 182 183 188 197 200 204 199 195 201 192 185 190 200 190
180 178 175 178 177 181 179 181 179 178 179 177 185 184 185 189 194 197 214 217 202 184 198 185 194 187 180 180 188 192 186 179 185 187 193 202 197 83 188 192 190 188 195 187 197
184 184 191 189 186 185 185 185 191 191 192 193 194 204 204 216 216 195 196 198 206 216 218 207 213 223 210 214 215 226 232 192 181 185 194 197 201 195 189 116 194 189 182 188 185
186 189 192 192 194 196 194 209 200 222 216 213 207 207 203 209 201 204 207 202 205 208 207 205 200 201 206 209 214 215 218 215 228 217 193 196 188 197 198 189 189 191 184 181 178
213 220 209 217 214 205 208 203 201 193 196 201 206 217 221 227 228 222 222 221 221 218 216 214 215 213 214 214 233 237 240 249 227 219 258 195 189 188 107 188 194 199 189 179 183
210 211 214 215 213 207 204 213 225 224 218 214 209 212 252 235 257 262 266 272 277 283 237 234 232 229 229 231 234 231 237 251 255 252 271 251 239 197 185 197 103 201 196 193 179
224 223 227 230 222 214 210 207 212 222 236 236 243 247 247 245 257 252 254 262 242 249 256 265 295 256 236 236 233 231 231 235 235 249 264 261 138 102 173 90 163 197 198 189 191
220 216 217 224 231 237 234 226 217 206 215 236 235 232 237 242 242 237 246 243 253 259 258 262 242 273 314 286 251 238 241 234 228 232 241 257 264 232 233 66 68 91 153 192 189
235 220 220 214 214 210 212 211 214 237 242 244 245 248 246 245 247 247 251 247 247 259 259 260 266 260 285 295 328 297 264 248 242 225 242 247 162 245 251 243 196 71 137 195 187
207 207 207 206 213 217 230 232 224 220 216 220 223 223 225 232 235 231 227 232 259 258 260 266 289 269 313 334 333 330 337 282 261 246 245 242 243 63 66 253 243 212 241 67 184
214 205 215 238 233 224 218 216 220 219 219 216 216 218 219 218 221 218 232 243 251 250 253 273 302 316 335 346 347 366 386 390 303 267 261 254 242 234 137 240 112 240 236 153 70
219 216 213 213 208 209 210 205 207 214 214 216 214 214 215 215 219 223 223 243 248 253 259 267 288 315 325 338 378 351 360 378 387 318 280 263 254 235 229 227 232 66 237 237 228
212 203 203 201 203 206 212 213 206 212 210 208 208 211 210 215 215 214 234 244 249 248 253 274 318 313 325 334 360 355 336 353 363 378 367 288 276 259 227 235 228 234 227 86 238
201 198 196 204 204 199 201 202 211 212 209 210 218 209 213 217 212 212 241 236 242 250 259 291 317 309 314 334 347 361 338 341 342 364 377 235 291 271 249 231 223 220 227 227 219
193 196 204 199 196 197 195 196 195 197 209 215 212 207 211 220 218 222 247 243 238 249 246 270 317 312 314 320 346 354 356 339 348 345 358 366 338 207 258 265 241 231 235 187 236
203 204 201 193 198 199 197 201 196 198 202 212 213 208 208 214 223 233 247 237 234 248 250 315 322 318 311 318 333 346 352 331 336 332 351 347 365 397 294 143 282 246 233 241 178
188 193 192 201 200 197 192 203 201 197 201 205 211 206 199 209 213 226 231 235 241 258 263 326 329 313 326 335 337 322 346 339 315 323 304 98 352 349 368 277 261 270 256 243 243
201 207 210 201 209 211 207 203 199 203 199 208 213 206 207 205 232 226 246 238 247 284 334 342 343 339 317 330 333 332 327 336 312 329 330 309 315 273 331 358 309 268 262 260 243
193 199 189 193 184 200 202 219 220 211 209 210 207 207 205 215 227 241 246 235 245 256 346 327 336 341 346 348 402 335 321 333 312 319 311 316 313 314 211 337 361 358 266 260 256
184 188 192 192 194 192 200 194 213 211 206 216 219 213 217 217 235 249 247 242 266 301 314 326 344 456 532 486 457 432 328 329 319 303 315 306 319 327 320 343 337 361 391 262 257
187 183 183 186 180 185 186 190 196 191 190 194 204 234 228 228 244 249 226 257 298 315 332 345 439 467 493 466 459 428 426 320 310 299 315 309 316 291 299 322 347 369 377 426 258
186 181 192 183 185 184 185 197 191 187 196 197 195 216 220 241 259 229 235 264 306 313 336 418 441 476 476 422 401 410 414 335 303 301 320 313 311 304 334 337 329 285 270 387 320
182 184 186 176 181 184 182 184 198 186 187 198 204 197 215 227 236 238 264 276 302 324 357 470 515 477 450 440 394 392 400 382 313 303 302 306 305 331 316 310 322 60 65 421 420
181 188 179 179 187 188 185 198 189 191 181 194 199 207 209 218 242 266 259 276 298 335 444 437 528 525 443 416 396 397 403 381 315 304 304 316 294 301 305 299 304 327 365 359 398
189 186 185 189 179 193 200 199 192 191 171 194 204 209 211 224 223 268 272 286 304 344 458 468 529 492 432 402 391 414 403 382 316 304 305 313 311 307 303 293 297 382 308 326 349
179 182 182 184 188 192 193 193 200 187 184 191 199 206 204 200 233 210 280 235 316 344 435 477 540 451 402 383 299 396 419 384 317 308 296 298 299 287 289 287 298 301 301 288 298
Wind_Speed
32 34 35 35 37 40 42 44 46 46 48 51 53 56 58 60 61 65 67 68 69 69 70 72 71 71 70 71 73 74 71 72 78 75 74 72 66 60 54 53 54 59 59 56 66
29 32 35 37 40 42 46 48 50 51 53 57 60 62 64 65 67 71 72 74 74 74 75 75 76 77 75 76 76 78 76 77 81 80 74 74 68 63 57 58 57 64 64 58 65
35 39 42 43 46 49 51 52 55 56 57 61 65 66 68 72 75 78 76 80 82 78 82 79 82 81 79 79 83 85 80 82 83 82 79 77 72 14 65 61 66 68 63 64 61
43 45 46 47 49 52 55 57 61 65 66 69 72 77 76 72 68 71 74 75 75 74 77 76 77 78 80 80 81 80 81 88 86 84 83 80 81 73 70 34 71 68 68 62 68
43 46 50 52 57 60 60 63 63 59 60 61 63 65 67 68 70 71 73 76 77 78 79 79 79 79 79 80 82 81 85 85 85 85 88 89 80 79 71 77 78 72 72 71 75
49 49 50 46 50 49 50 52 55 55 59 62 65 65 66 67 68 69 69 72 73 76 78 81 82 82 82 81 80 81 80 79 84 87 81 91 88 81 38 80 82 76 76 78 76
36 40 42 43 45 48 51 53 52 52 55 57 61 64 50 64 49 47 46 47 50 55 78 80 82 83 83 81 80 80 77 76 74 78 77 87 87 92 94 85 61 81 78 79 80
25 29 34 35 36 41 44 47 49 48 48 49 46 45 46 47 42 46 45 43 55 55 54 55 56 77 86 86 85 83 80 76 73 76 77 83 41 25 87 44 70 84 81 82 82
24 27 31 33 31 31 33 38 42 46 48 40 41 44 47 48 47 47 49 49 48 47 50 54 65 56 61 76 88 89 87 81 75 82 78 80 70 90 99 27 24 42 63 85 87
17 19 22 26 29 34 36 39 41 35 34 36 39 40 44 46 49 52 53 55 57 57 56 57 59 61 65 66 73 83 95 87 83 85 85 79 49 82 84 91 77 29 59 86 88
21 22 24 26 28 30 28 27 29 33 34 36 38 40 43 45 48 50 53 55 59 57 60 60 63 59 62 64 66 75 81 91 90 91 91 81 80 31 25 84 87 92 90 23 88
21 25 24 19 20 22 26 31 36 37 38 39 41 45 48 50 52 52 60 62 60 62 64 68 63 62 63 62 56 56 60 67 89 94 99 90 83 83 41 82 36 88 92 66 24
19 20 22 26 28 32 34 37 39 41 45 46 49 51 53 52 55 59 60 64 63 64 66 66 68 64 64 60 51 47 52 55 61 86 97 94 89 87 86 88 88 26 87 93 91
21 23 28 30 33 35 37 39 43 45 47 50 52 52 56 59 58 60 66 66 67 68 69 73 64 63 62 59 48 37 49 48 53 60 70 97 95 90 91 93 95 88 82 18 92
26 28 31 34 35 38 40 42 44 47 50 51 52 57 60 61 62 61 69 73 72 74 74 76 64 61 62 58 50 38 40 44 48 52 56 36 95 89 97 97 93 92 92 92 84
30 33 35 36 38 39 44 47 51 52 52 54 56 60 65 67 70 73 72 69 74 77 68 74 58 57 57 58 52 42 33 39 43 46 50 44 72 65 100 107 107 109 108 89 109
31 33 34 39 41 43 48 50 51 55 57 58 58 64 68 72 75 76 71 74 73 74 72 63 60 55 55 52 49 47 35 33 38 39 29 46 47 49 98 48 101 107 106 106 74
38 39 43 45 46 48 50 53 55 59 62 64 66 67 69 74 76 77 78 80 81 83 82 62 53 57 57 50 43 46 40 29 38 41 46 18 33 47 65 92 100 102 106 106 102
37 40 44 48 51 51 54 57 60 61 65 67 67 69 74 77 78 78 78 83 87 86 72 67 55 52 58 48 42 42 37 34 35 38 39 52 56 57 62 58 92 105 107 108 107
41 44 44 49 50 59 63 59 61 64 68 68 70 73 77 80 80 82 84 84 88 86 75 70 65 56 52 49 40 39 40 35 34 39 44 47 56 60 48 60 59 76 106 109 108
41 46 50 54 60 61 69 68 66 67 71 72 73 77 81 84 86 81 86 90 90 86 80 74 71 58 29 18 32 27 39 37 35 41 43 53 57 53 51 41 62 58 55 110 108
46 47 50 55 55 63 68 74 74 75 76 80 83 79 82 87 88 82 89 92 92 88 82 77 64 46 26 13 12 26 32 38 36 43 46 51 54 56 53 50 35 31 47 44 110
50 52 55 56 60 65 70 74 74 75 80 84 86 91 91 86 83 89 96 93 93 91 86 75 55 28 18 5 14 26 27 41 42 46 50 54 51 48 41 40 33 27 30 42 93
51 53 56 56 60 64 66 71 74 75 81 86 92 92 95 94 92 96 93 94 96 93 84 58 19 18 20 12 21 24 33 38 46 50 44 48 43 32 38 36 25 31 34 32 50
52 57 52 55 65 67 67 73 74 74 80 88 95 97 101 102 97 90 93 95 96 95 74 64 27 11 11 11 19 33 37 40 49 48 42 44 46 39 38 36 27 21 29 35 42
55 57 61 65 61 72 76 76 72 76 73 88 96 97 102 101 103 93 96 96 94 93 68 55 23 2 5 9 14 22 32 40 51 48 43 45 41 45 41 36 27 27 43 42 34
55 62 63 66 69 73 77 76 79 75 79 86 95 99 100 86 105 85 97 72 100 99 73 51 19 5 8 12 17 22 25 40 53 52 44 48 48 47 45 39 31 36 47 51 53
Wind_Direction
256 264 262 262 263 262 262 262 262 263 264 263 262 262 263 262 263 264 263 262 260 259 258 257 255 252 252 253 252 252 249 247 249 249 249 249 246 242 237 232 231 233 235 229 236
264 268 268 267 265 264 265 265 267 266 264 264 264 264 265 265 265 264 263 261 261 260 260 258 256 255 255 253 252 250 249 248 248 248 247 246 243 240 234 230 226 231 233 228 232
267 266 268 267 267 265 266 267 268 269 267 267 270 269 269 269 268 269 271 269 265 262 263 260 258 257 256 255 254 250 248 250 248 248 247 245 241 235 233 230 227 227 229 230 230
266 268 271 269 270 272 272 273 274 273 273 272 271 271 272 272 269 269 269 268 267 267 266 263 261 259 258 257 255 254 250 249 249 249 247 245 241 237 232 234 227 225 227 227 232
275 276 276 276 274 272 272 274 275 276 274 275 275 274 274 275 274 272 270 270 270 269 268 265 263 262 261 259 257 255 251 248 246 246 245 244 245 238 230 232 232 224 223 224 231
269 272 270 273 273 276 275 276 277 279 280 279 279 280 279 278 277 275 274 272 270 270 268 268 267 264 262 260 260 258 255 251 247 245 241 242 246 243 238 233 231 226 223 225 225
273 275 277 277 278 280 281 281 282 283 282 282 283 283 284 285 284 284 284 285 286 281 270 269 268 267 265 261 258 257 255 251 247 244 241 238 238 242 239 232 247 230 224 223 227
287 283 282 281 281 281 282 283 286 289 290 289 288 293 291 286 297 292 289 289 276 276 275 277 276 265 264 262 261 257 253 250 248 244 240 238 231 244 234 237 234 234 227 226 223
285 283 286 290 291 292 293 294 293 291 291 296 297 296 301 304 303 297 303 295 300 296 283 278 268 273 270 260 257 258 253 251 245 246 243 239 230 235 236 231 246 235 228 226 224
309 305 306 304 303 302 299 296 295 310 314 316 319 316 313 312 310 312 312 312 310 305 300 294 287 279 280 266 260 251 253 251 245 245 242 239 238 232 235 234 236 244 234 226 226
326 323 318 311 304 304 312 326 325 323 318 324 328 328 328 331 328 326 321 319 310 307 305 301 300 287 288 280 269 260 253 246 244 242 241 236 231 269 254 235 230 233 230 229 223
328 323 323 340 342 338 335 333 334 331 329 331 330 333 334 333 331 328 327 325 320 315 311 312 311 304 298 293 285 277 267 258 238 239 240 235 230 228 233 232 241 228 229 232 241
345 344 342 346 344 344 341 334 334 335 334 337 337 335 334 334 333 332 329 327 321 319 319 318 315 305 301 298 297 280 269 259 254 238 237 236 231 227 227 228 230 238 227 228 224
358 347 350 345 346 346 344 342 339 337 339 337 334 335 334 334 334 334 330 328 325 325 325 323 312 306 303 301 298 284 267 259 251 246 240 233 232 228 227 226 227 226 224 226 226
347 344 343 350 351 346 345 343 343 343 339 336 335 334 335 334 333 334 335 333 329 328 328 325 316 309 304 305 302 291 268 259 252 248 242 241 232 226 225 225 225 226 224 223 227
346 347 350 349 347 345 342 343 342 341 342 339 338 336 337 336 335 336 333 330 333 327 329 325 314 306 301 301 302 296 277 263 253 247 242 236 237 227 225 222 220 222 219 214 217
354 354 351 345 346 346 346 345 341 341 343 343 340 339 339 337 337 336 333 332 333 329 329 321 313 307 299 296 297 295 287 254 254 247 249 236 238 238 225 225 222 223 225 223 224
349 349 348 352 349 347 343 347 345 344 342 342 342 340 337 336 335 336 335 332 333 328 328 320 315 307 307 304 293 288 282 260 246 238 234 204 240 235 240 226 224 220 221 222 221
354 356 2 3 2 353 349 347 346 343 343 343 342 338 336 336 336 336 332 333 332 327 328 323 323 310 303 300 289 279 273 262 237 233 224 229 228 225 229 235 225 220 219 218 219
6 10 358 359 351 4 1 352 348 347 347 345 340 337 335 334 337 336 333 337 335 334 333 329 323 313 306 297 290 269 269 256 236 227 225 227 233 236 236 234 235 229 217 218 218
356 0 4 2 3 1 -0 356 357 352 348 346 343 338 337 337 342 337 332 334 332 335 333 329 322 318 311 296 274 265 254 248 235 228 221 229 228 230 232 240 233 235 235 217 216
358 355 357 358 353 358 356 356 354 351 348 346 345 347 343 342 342 338 340 335 338 338 339 331 323 325 314 309 303 248 238 241 232 229 221 226 229 233 235 236 231 230 235 237 214
359 357 360 355 359 357 356 356 351 349 349 346 343 347 345 347 344 339 339 336 342 342 340 333 329 331 331 217 248 239 234 216 228 226 216 219 229 231 223 224 223 228 222 231 214
358 358 360 352 355 355 355 352 352 348 346 349 347 342 345 345 343 340 339 341 345 345 343 339 319 294 288 261 235 232 226 205 218 227 225 223 223 202 206 215 208 244 241 235 213
355 357 354 354 356 355 353 353 351 349 344 348 347 343 343 344 346 344 342 346 346 348 346 343 328 274 281 243 218 223 228 204 212 223 220 212 221 199 201 201 202 221 204 197 214
357 358 358 357 351 354 356 354 350 351 342 348 348 346 343 345 345 349 348 347 351 353 352 347 329 49 241 227 224 226 226 210 210 220 214 203 198 187 183 188 183 191 186 197 207
356 358 357 357 355 357 357 355 353 348 345 347 349 347 343 348 347 355 349 349 354 358 357 357 347 134 268 230 239 229 229 213 207 213 210 202 193 195 181 181 173 175 179 194 208